This is the latest recevied weather packets stored in our database for station/object PA3CPS. If no packets are shown the sender has not sent any weather packets the latest 1 day(s).
| Time | Temp. | Humidity | Pressure | Rain* | Wind** | Luminosity | Snow |
|---|---|---|---|---|---|---|---|
| 1777966711 | 8.89° C | 93% | 1011.2 hPa | 0 mm | 1.79 m/s, 12° | 171 W/m² | - |
| 1777966412 | 8.89° C | 93% | 1011.3 hPa | 0 mm | 2.68 m/s, 359° | 171 W/m² | - |
| 1777966112 | 8.89° C | 93% | 1011.4 hPa | 0 mm | 3.58 m/s, 20° | 137 W/m² | - |
| 1777965814 | 8.89° C | 93% | 1011.4 hPa | 0 mm | 2.68 m/s, 6° | 120 W/m² | - |
| 1777965512 | 8.89° C | 93% | 1011.5 hPa | 0 mm | 3.13 m/s, 341° | 86 W/m² | - |
| 1777965211 | 8.89° C | 93% | 1011.6 hPa | 0 mm | 3.13 m/s, 355° | 102 W/m² | - |
| 1777964912 | 8.89° C | 94% | 1011.5 hPa | 0 mm | 1.79 m/s, 29° | 102 W/m² | - |
| 1777964611 | 8.89° C | 94% | 1011.7 hPa | 0 mm | 2.24 m/s, 5° | 86 W/m² | - |
| 1777964311 | 8.89° C | 94% | 1011.7 hPa | 0 mm | 1.79 m/s, 349° | 77 W/m² | - |
| 1777964011 | 8.89° C | 94% | 1011.8 hPa | 0 mm | 2.68 m/s, 35° | 79 W/m² | - |
| 1777963712 | 8.89° C | 94% | 1011.7 hPa | 0 mm | 2.24 m/s, 339° | 81 W/m² | - |
| 1777963411 | 8.89° C | 93% | 1011.7 hPa | 0 mm | 2.24 m/s, 352° | 88 W/m² | - |
| 1777963111 | 8.89° C | 93% | 1011.6 hPa | 0 mm | 1.34 m/s, 8° | 70 W/m² | - |
| 1777962811 | 8.89° C | 93% | 1011.7 hPa | 0 mm | 1.34 m/s, 352° | 56 W/m² | - |
| 1777962511 | 8.89° C | 93% | 1011.6 hPa | 0 mm | 1.79 m/s, 358° | 44 W/m² | - |
| 1777962212 | 8.89° C | 93% | 1011.6 hPa | 0 mm | 1.79 m/s, 14° | 42 W/m² | - |
| 1777961912 | 8.89° C | 93% | 1011.6 hPa | 0 mm | 1.34 m/s, 348° | 30 W/m² | - |
| 1777961611 | 8.89° C | 93% | 1011.5 hPa | 0 mm | 1.79 m/s, 343° | 23 W/m² | - |
| 1777961311 | 8.89° C | 93% | 1011.5 hPa | 0 mm | 2.24 m/s, 354° | 21 W/m² | - |
| 1777961012 | 8.89° C | 93% | 1011.4 hPa | 0 mm | 1.79 m/s, 345° | 14 W/m² | - |
| 1777960711 | 8.89° C | 93% | 1011.4 hPa | 0 mm | 1.34 m/s, 18° | 14 W/m² | - |
| 1777960410 | 8.89° C | 93% | 1011.3 hPa | 0 mm | 1.79 m/s, 25° | 14 W/m² | - |
| 1777960111 | 8.89° C | 93% | 1011.2 hPa | 0 mm | 1.34 m/s, 8° | 12 W/m² | - |
| 1777959812 | 8.89° C | 92% | 1011.2 hPa | 0 mm | 0.89 m/s, 10° | 11 W/m² | - |
| 1777959511 | 8.89° C | 93% | 1011.2 hPa | 0 mm | 1.79 m/s, 10° | 11 W/m² | - |
* Rain latest hour (hover to see other rain measurements)
** Current wind speed in m/s (hover to see current wind gust speed)